When you browse on this site, cookies collect data to enhance your experience and personalize the content and advertising you see.
Visit our Privacy Policy to learn more. By continuing to use the site, you agree to this use of cookies and data.
  • In Portugal
  • List of Countries
  • For 7 days
  • Water Temperature
  • Satellite Maps
  • Weather Map
  • Weather Widgets
  • user-avatar
    Login

    Hourly Weather Lubango

    Today, 23 May, Thursday

    Time Temperature Precipitation Wind Pressure Humidity
    00:00 +14°C° 0 mm 1 mps 608 mmHg 57%
    01:00 +14°C° 0 mm 1 mps 608 mmHg 52%
    02:00 +14°C° 0 mm 1 mps 608 mmHg 52%
    03:00 +14°C° 0 mm 1 mps 608 mmHg 52%
    04:00 +14°C° 0 mm 1 mps 607 mmHg 52%
    05:00 +14°C° 0 mm 1 mps 608 mmHg 52%
    06:00 +14°C° 0 mm 1 mps 608 mmHg 52%
    07:00 +16°C° 0 mm 1 mps 609 mmHg 55%
    08:00 +20°C° 0 mm 1 mps 610 mmHg 48%
    09:00 +21°C° 0 mm 2 mps 611 mmHg 41%
    10:00 +25°C° 0 mm 2 mps 612 mmHg 34%
    11:00 +25°C° 0 mm 2 mps 612 mmHg 33%
    12:00 +25°C° 0 mm 2 mps 611 mmHg 33%
    13:00 +25°C° 0 mm 1 mps 611 mmHg 32%
    14:00 +25°C° 0 mm 1 mps 610 mmHg 33%
    15:00 +24°C° 0 mm 1 mps 610 mmHg 34%
    16:00 +22°C° 0 mm 0 mps 609 mmHg 34%
    17:00 +20°C° 0 mm 0 mps 609 mmHg 39%
    18:00 +20°C° 0 mm 1 mps 608 mmHg 44%
    19:00 +18°C° 0 mm 1 mps 608 mmHg 48%
    20:00 +16°C° 0 mm 1 mps 608 mmHg 49%
    21:00 +16°C° 0 mm 1 mps 608 mmHg 51%
    22:00 +15°C° 0 mm 1 mps 609 mmHg 52%
    23:00 +15°C° 0 mm 1 mps 609 mmHg 51%

    Tomorrow, 24 May, Friday

    Time Temperature Precipitation Wind Pressure Humidity
    00:00 +15°C° 0 mm 1 mps 609 mmHg 51%
    01:00 +16°C° 0 mm 1 mps 609 mmHg 50%
    02:00 +15°C° 0 mm 1 mps 608 mmHg 52%
    03:00 +15°C° 0 mm 1 mps 608 mmHg 54%
    04:00 +15°C° 0 mm 1 mps 608 mmHg 56%
    05:00 +15°C° 0 mm 1 mps 608 mmHg 58%
    06:00 +15°C° 0 mm 1 mps 608 mmHg 59%
    07:00 +15°C° 0 mm 1 mps 609 mmHg 61%
    08:00 +18°C° 0 mm 2 mps 610 mmHg 52%
    09:00 +21°C° 0 mm 2 mps 611 mmHg 44%
    10:00 +25°C° 0 mm 3 mps 613 mmHg 35%
    11:00 +26°C° 0 mm 3 mps 612 mmHg 33%
    12:00 +27°C° 0 mm 2 mps 612 mmHg 31%
    13:00 +27°C° 0 mm 2 mps 611 mmHg 29%
    14:00 +27°C° 0 mm 1 mps 611 mmHg 30%
    15:00 +26°C° 0 mm 1 mps 610 mmHg 31%
    16:00 +26°C° 0 mm 1 mps 610 mmHg 31%
    17:00 +24°C° 0 mm 1 mps 609 mmHg 33%
    18:00 +23°C° 0 mm 1 mps 609 mmHg 36%
    19:00 +20°C° 0 mm 2 mps 609 mmHg 38%
    20:00 +20°C° 0 mm 2 mps 609 mmHg 39%
    21:00 +20°C° 0 mm 1 mps 610 mmHg 41%
    22:00 +20°C° 0 mm 1 mps 610 mmHg 42%
    23:00 +19°C° 0 mm 1 mps 610 mmHg 44%

    Day after tomorrow, 25 May, Saturday

    Time Temperature Precipitation Wind Pressure Humidity
    00:00 +18°C° 0 mm 1 mps 609 mmHg 46%
    01:00 +17°C° 0 mm 2 mps 609 mmHg 48%
    02:00 +17°C° 0 mm 2 mps 609 mmHg 48%
    03:00 +16°C° 0 mm 2 mps 608 mmHg 48%
    04:00 +16°C° 0 mm 2 mps 608 mmHg 48%
    05:00 +16°C° 0 mm 3 mps 608 mmHg 47%
    06:00 +16°C° 0 mm 3 mps 608 mmHg 45%
    07:00 +16°C° 0 mm 3 mps 609 mmHg 44%
    08:00 +19°C° 0 mm 4 mps 610 mmHg 38%
    09:00 +21°C° 0 mm 5 mps 611 mmHg 31%
    10:00 +25°C° 0 mm 5 mps 612 mmHg 25%
    11:00 +26°C° 0 mm 5 mps 612 mmHg 24%
    12:00 +27°C° 0 mm 4 mps 611 mmHg 23%
    13:00 +28°C° 0 mm 4 mps 611 mmHg 22%
    14:00 +28°C° 0 mm 3 mps 611 mmHg 22%
    15:00 +28°C° 0 mm 2 mps 610 mmHg 22%
    16:00 +27°C° 0 mm 2 mps 610 mmHg 21%
    17:00 +25°C° 0 mm 2 mps 609 mmHg 24%
    18:00 +23°C° 0 mm 1 mps 609 mmHg 27%
    19:00 +21°C° 0 mm 1 mps 609 mmHg 30%
    20:00 +20°C° 0 mm 1 mps 609 mmHg 32%
    21:00 +19°C° 0 mm 1 mps 609 mmHg 34%
    22:00 +18°C° 0 mm 1 mps 609 mmHg 35%
    23:00 +16°C° 0 mm 1 mps 609 mmHg 36%

    26 May, Sunday

    Time Temperature Precipitation Wind Pressure Humidity
    00:00 +16°C° 0 mm 1 mps 608 mmHg 36%
    01:00 +15°C° 0 mm 1 mps 608 mmHg 36%
    02:00 +15°C° 0 mm 1 mps 608 mmHg 36%
    03:00 +14°C° 0 mm 2 mps 607 mmHg 36%
    04:00 +14°C° 0 mm 2 mps 607 mmHg 36%
    05:00 +14°C° 0 mm 2 mps 607 mmHg 36%
    06:00 +14°C° 0 mm 2 mps 608 mmHg 37%
    07:00 +14°C° 0 mm 2 mps 608 mmHg 38%
    08:00 +17°C° 0 mm 3 mps 609 mmHg 33%
    09:00 +20°C° 0 mm 3 mps 611 mmHg 29%
    10:00 +23°C° 0 mm 4 mps 612 mmHg 24%
    11:00 +25°C° 0 mm 3 mps 612 mmHg 22%
    12:00 +27°C° 0 mm 2 mps 612 mmHg 21%
    13:00 +28°C° 0 mm 2 mps 611 mmHg 20%
    14:00 +28°C° 0 mm 2 mps 611 mmHg 20%
    15:00 +27°C° 0 mm 1 mps 610 mmHg 20%
    16:00 +27°C° 0 mm 1 mps 610 mmHg 20%
    17:00 +24°C° 0 mm 1 mps 609 mmHg 24%
    18:00 +21°C° 0 mm 1 mps 608 mmHg 29%
    19:00 +18°C° 0 mm 1 mps 608 mmHg 33%
    20:00 +18°C° 0 mm 1 mps 608 mmHg 33%
    21:00 +16°C° 0 mm 1 mps 608 mmHg 33%
    22:00 +16°C° 0 mm 2 mps 608 mmHg 34%
    23:00 +16°C° 0 mm 2 mps 608 mmHg 34%

    27 May, Monday

    Time Temperature Precipitation Wind Pressure Humidity
    00:00 +15°C° 0 mm 2 mps 608 mmHg 34%
    01:00 +15°C° 0 mm 2 mps 607 mmHg 34%
    02:00 +14°C° 0 mm 2 mps 607 mmHg 35%
    03:00 +14°C° 0 mm 2 mps 607 mmHg 35%
    04:00 +13°C° 0 mm 2 mps 607 mmHg 36%
    05:00 +14°C° 0 mm 2 mps 607 mmHg 38%
    06:00 +14°C° 0 mm 2 mps 608 mmHg 40%
    07:00 +13°C° 0 mm 3 mps 608 mmHg 42%
    08:00 +17°C° 0 mm 3 mps 609 mmHg 37%
    09:00 +20°C° 0 mm 4 mps 610 mmHg 32%
    10:00 +23°C° 0 mm 4 mps 611 mmHg 27%
    11:00 +25°C° 0 mm 4 mps 611 mmHg 25%
    12:00 +26°C° 0 mm 3 mps 611 mmHg 23%
    13:00 +27°C° 0 mm 2 mps 611 mmHg 21%
    14:00 +27°C° 0 mm 2 mps 610 mmHg 21%
    15:00 +27°C° 0 mm 2 mps 610 mmHg 21%
    16:00 +27°C° 0 mm 1 mps 609 mmHg 20%
    17:00 +24°C° 0 mm 1 mps 609 mmHg 26%
    18:00 +21°C° 0 mm 1 mps 608 mmHg 31%
    19:00 +18°C° 0 mm 1 mps 607 mmHg 37%
    20:00 +16°C° 0 mm 1 mps 607 mmHg 39%
    21:00 +15°C° 0 mm 1 mps 608 mmHg 40%
    22:00 +15°C° 0 mm 1 mps 608 mmHg 42%
    23:00 +15°C° 0 mm 1 mps 608 mmHg 42%

    28 May, Tuesday

    Time Temperature Precipitation Wind Pressure Humidity
    00:00 +14°C° 0 mm 1 mps 607 mmHg 42%
    01:00 +14°C° 0 mm 1 mps 607 mmHg 43%
    02:00 +14°C° 0 mm 1 mps 607 mmHg 42%
    03:00 +14°C° 0 mm 1 mps 607 mmHg 42%
    04:00 +13°C° 0 mm 1 mps 607 mmHg 41%
    05:00 +13°C° 0 mm 1 mps 607 mmHg 42%
    06:00 +13°C° 0 mm 1 mps 607 mmHg 42%
    07:00 +14°C° 0 mm 2 mps 608 mmHg 42%
    08:00 +17°C° 0 mm 2 mps 609 mmHg 37%
    09:00 +20°C° 0 mm 3 mps 610 mmHg 31%
    10:00 +25°C° 0 mm 3 mps 612 mmHg 26%
    11:00 +25°C° 0 mm 3 mps 611 mmHg 24%
    12:00 +26°C° 0 mm 3 mps 611 mmHg 23%
    13:00 +27°C° 0 mm 2 mps 611 mmHg 21%
    14:00 +27°C° 0 mm 2 mps 610 mmHg 21%
    15:00 +27°C° 0 mm 2 mps 610 mmHg 22%
    16:00 +26°C° 0 mm 2 mps 609 mmHg 22%
    17:00 +23°C° 0 mm 2 mps 609 mmHg 31%
    18:00 +20°C° 0 mm 1 mps 608 mmHg 40%
    19:00 +16°C° 0 mm 1 mps 607 mmHg 49%
    20:00 +15°C° 0 mm 1 mps 607 mmHg 51%
    21:00 +15°C° 0 mm 1 mps 607 mmHg 54%
    22:00 +14°C° 0 mm 1 mps 608 mmHg 57%
    23:00 +14°C° 0 mm 1 mps 607 mmHg 57%
    Show more